Weather in Mokry Semenek

Russia / Lipetsk Oblast     52°45′04″N   37°55′22″E
temp.,
°C
wind,
m/s
gust,
m/s
humid.,
%
clouds,
%
prec.,
mm/h
press.,
hPa
HPBL,
m
8 august, mon
mon800:00+23ne1135100 0.0 101811
03:00+20n4647100 0.0 1018110
06:00+18n357499 0.0 1019132
09:00+24e345181 0.0 1019385
12:00+29sse333344 0.0 10191168
15:00+30s343061 0.0 10191855
18:00+28s34395 0.0 1018145
21:00+25w4739100 0.0 1019137
9 august, tue
tue900:00+23ese1139100 0.0 101812
03:00+21nne225143 0.0 101920
06:00+21ese225097 0.0 101833
09:00+24nne114584 0.0 1018411
12:00+27w334480 0.0 10181254
15:00+27nw344888 0.0 10181682
18:00+24nnw566486 0.0 1018586
21:00+18nnw599465 1.9 1019304
10 august, wed
wed1000:00+17n3796100 2.6 1019266
03:00+16n369899 2.6 1019199
06:00+16n2596100 0.0 1019204
09:00+18n4487100 0.0 1019435
12:00+22n3360100 0.0 10191029
15:00+22nnw446350 0.1 1019713
18:00+21nne5670100 0.0 1019618
21:00+18nne5108095 0.0 1020345
11 august, thu
thu1100:00+17nne5118280 0.0 1020339
03:00+16ne51181100 0.0 1021328
06:00+15ne41084100 0.1 1022301
09:00+19ne71068100 0.2 1022561
12:00+24ene675199 0.0 10221190
15:00+26ne664456 0.0 10211321
18:00+25ne56485 0.0 1021724
21:00+19nne510610 0.0 1022230
12 august, fri
fri1200:00+18ne5125512 0.0 1022250
03:00+16ne410585 0.0 1023185
06:00+16ne49648 0.0 1024187
09:00+22ene5854100 0.0 1023424
12:00+27ene5644100 0.0 10231065
15:00+29e553966 0.0 10211691
18:00+28ene464634 0.0 1021308
21:00+23ene4755100 0.0 1022108